Volver al catálogo

KATYS G.P.

ActivoComunicacionesSSO
NORAD 57176·PAYLOAD·🇷🇺 Russia
Este nombre de satélite aún no ha sido confirmado por fuentes oficiales.

Lanzado Jun 27, 2023 desde Vostochny Cosmodrome

Loading…

Próximos Pases (próximas 24 horas)

TLE

ActualizadoSource: Space-Track

Época: Sep 14, 2026, 12:25 UTC

1 57176U 23091L   26257.51755959  .00009920  00000-0  33071-3 0  9996
2 57176  97.4967 322.3402 0011810 140.7923 219.4176 15.31230747178002

Sigue KATYS G.P. en tiempo real con AllMySat

Download on the App Store